RH
98 94 95 98 89 94 87 79 69 61 59 52 37 31 29 25 23 24 27 29 27 22 18 16 15 15 16
100 100 96 89 90 80 73 66 61 58 48 34 30 25 23 23 27 28 21 16 13 12 12 10 10 10 10
98 98 85 84 83 67 66 60 56 44 32 26 20 21 24 26 21 14 12 12 11 10 9 9 9 9 9
98 87 91 79 69 66 55 49 41 34 27 20 22 25 26 19 12 10 9 9 8 6 5 5 5 5 5
85 86 74 69 67 52 47 39 35 21 20 25 25 21 12 10 8 8 6 5 5 5 5 5 5 5 5
75 61 60 54 48 42 32 27 27 22 22 25 18 11 10 9 8 6 6 5 5 4 4 4 4 4 4
59 50 48 46 42 31 26 23 21 22 24 19 10 10 9 8 7 6 6 5 5 6 6 6 6 6 6
50 50 42 35 31 26 21 22 24 23 14 11 10 9 8 6 6 6 5 6 7 7 7 7 6 6 6
56 42 38 35 27 21 22 25 24 13 10 10 9 8 6 6 6 6 7 7 7 6 5 5 4 4 4
45 41 40 33 24 23 24 23 13 11 9 10 8 7 6 6 7 7 8 7 5 5 5 5 5 5 5
45 44 35 25 24 24 24 14 11 9 10 9 7 7 7 8 8 9 7 5 5 5 6 6 6 6 6
42 32 26 24 24 25 13 10 9 10 9 7 7 7 8 9 9 7 6 6 6 6 6 6 6 5 5
30 27 24 25 20 12 10 9 10 9 7 7 7 8 9 10 7 6 6 6 7 7 6 6 5 5 4
27 24 25 18 11 10 9 10 9 7 7 7 9 9 10 8 6 6 7 8 7 6 6 7 7 7 6
24 24 14 10 9 9 10 9 7 7 7 8 10 10 8 7 7 6 7 7 7 8 8 8 8 7 7
20 12 10 9 9 10 9 7 7 7 9 9 10 9 8 8 11 9 8 7 8 9 8 8 8 9 8
11 9 9 9 10 8 7 7 7 9 10 11 10 9 7 6 9 10 9 10 9 8 7 7 6 8 9
Wind_Speed
92 96 99 102 106 109 110 113 116 120 123 127 128 129 129 124 120 119 120 119 113 108 105 104 103 100 101
98 101 103 107 110 111 114 116 120 125 128 129 132 131 127 123 124 126 117 110 106 102 101 99 97 98 97
102 105 108 110 113 116 119 122 128 131 131 132 125 126 128 130 123 115 106 102 96 94 94 94 94 93 93
108 110 113 115 118 119 123 127 130 133 134 127 129 134 133 123 112 103 95 91 90 88 86 84 84 85 86
112 114 117 121 121 126 126 128 133 131 124 132 133 129 117 109 99 92 88 85 80 76 74 74 72 71 72
117 120 124 123 125 126 127 130 134 132 129 136 129 115 105 99 94 89 82 75 73 69 65 65 63 62 62
121 121 123 123 124 126 130 130 131 135 134 130 113 106 100 94 89 81 76 70 64 61 59 58 58 57 57
119 120 122 125 128 128 125 129 137 136 121 114 107 101 94 86 80 76 68 63 59 57 55 54 53 53 53
119 123 127 129 129 125 130 134 136 126 115 108 99 93 85 79 74 66 61 58 55 52 51 51 50 49 49
124 127 128 129 129 132 134 135 127 119 107 97 91 85 79 70 65 61 57 54 51 49 48 49 49 49 48
123 125 128 130 133 136 138 127 115 106 95 92 84 77 69 65 59 57 55 50 49 48 46 46 45 46 46
125 127 131 134 137 137 125 113 99 94 92 82 76 69 63 58 55 52 49 51 49 47 46 45 44 43 44
127 132 134 135 132 121 110 99 93 88 83 76 68 62 58 56 53 50 50 46 45 46 44 45 43 43 40
132 134 135 128 114 104 98 93 89 80 72 67 61 57 54 52 50 49 45 47 45 42 41 38 39 36 37
132 132 119 111 100 93 89 86 79 72 65 57 53 53 50 50 52 50 43 39 41 40 35 31 31 34 30
126 115 105 99 93 87 83 76 70 63 58 55 51 48 44 41 44 50 44 43 39 36 34 32 25 27 29
112 103 96 91 85 82 74 67 61 55 52 51 49 48 46 41 34 40 44 39 38 35 33 33 29 23 25
Wind_Direction
294 295 295 297 301 302 303 304 304 305 305 305 304 303 303 306 307 306 304 301 295 288 282 277 273 270 268
294 295 296 298 300 301 302 303 303 303 303 303 302 304 307 306 307 304 300 294 291 287 283 278 274 269 265
295 296 298 299 300 301 303 303 303 303 303 304 308 308 310 308 304 300 297 293 289 284 280 277 274 271 266
297 297 298 300 300 302 302 303 303 303 304 309 311 311 308 304 301 298 296 294 289 286 281 278 275 271 268
297 297 298 299 301 302 303 303 302 304 309 309 310 307 304 303 303 301 298 295 292 289 285 281 277 272 267
298 299 299 300 302 302 302 303 303 310 311 310 309 307 306 307 306 304 301 299 294 291 287 284 280 275 270
299 299 300 301 301 302 304 306 310 312 313 310 309 309 309 309 307 305 303 300 296 293 289 285 281 277 273
299 300 301 303 303 304 308 310 312 312 312 311 311 310 309 309 307 306 303 300 297 294 290 286 281 277 273
301 302 302 302 304 308 311 313 314 313 313 312 311 310 310 310 307 304 302 300 297 295 291 288 285 280 274
302 302 301 302 306 310 313 315 314 312 312 311 311 311 310 308 305 304 302 300 298 296 293 289 286 282 278
301 299 301 305 309 312 314 313 312 310 311 311 311 311 308 307 306 305 304 302 300 298 295 291 287 284 279
299 301 305 309 313 313 312 311 311 311 312 312 311 310 308 308 306 305 304 303 302 299 296 292 288 284 280
301 305 309 312 313 312 311 311 312 313 311 311 310 309 309 308 308 307 307 305 304 303 301 298 294 290 283
305 309 311 312 312 311 311 312 312 312 311 309 309 309 310 310 308 308 309 308 308 305 303 302 298 295 291
308 310 312 312 312 312 312 312 311 311 310 309 309 310 312 312 311 310 312 309 309 310 307 305 303 298 292
310 312 313 312 312 312 312 312 311 310 309 310 311 311 310 311 311 310 315 315 315 314 313 310 308 302 298
312 313 313 312 312 312 312 311 310 309 309 310 312 312 310 312 313 311 314 316 316 317 318 313 311 310 304